START_TIME,STEP,MOV.,M34,t_acc.,L5,t_acc.,L18,t_acc.,L14,t_acc.
1979-07-15 18:00:24.910 ,0,1,0.,12.0,0.,12.0,0.,12.0,0.,12.0
1979-07-15 18:00:36.910 ,0,1,0.,12.0,0.,12.0,0.,12.0,0.,12.0
1979-07-15 18:00:48.910 ,3,1,0.,12.0,0.,12.0,0.,12.0,0.,12.0
1979-07-15 18:01:00.910 ,3,1,0.,12.0,0.,12.0,0.,12.0,0.,12.0
1979-07-15 18:01:12.910 ,7,1,0.,12.0,0.,12.0,0.,12.0,0.,12.0
1979-07-15 18:01:24.910 ,7,1,0.,12.0,0.,12.0,0.,12.0,0.,12.0
1979-07-15 18:01:36.910 ,4,1,0.,12.0,0.,12.0,0.,12.0,0.,12.0
1979-07-15 18:01:48.910 ,4,1,0.,12.0,0.,12.0,0.,12.0,0.,12.0
1979-07-15 18:02:00.910 ,0,1,0.,12.0,0.,12.0,0.,12.0,0.,12.0
1979-07-15 18:02:12.910 ,0,1,0.,12.0,0.,12.0,0.,12.0,0.,12.0
1979-07-15 18:02:24.910 ,3,1,0.,12.0,0.,12.0,0.,12.0,0.,12.0
1979-07-15 18:02:36.910 ,3,1,0.,12.0,0.,12.0,0.,12.0,0.,12.0
1979-07-15 18:02:48.910 ,7,1,0.,12.0,0.,12.0,0.,12.0,0.,12.0
1979-07-15 18:03:00.910 ,7,1,0.,12.0,0.,12.0,0.,12.0,0.,12.0
1979-07-15 18:03:12.910 ,4,1,0.,12.0,0.,12.0,0.,12.0,0.,12.0
1979-07-15 18:03:24.910 ,4,1,0.,12.0,0.,12.0,0.,12.0,0.,12.0
1979-07-15 18:03:36.910 ,0,1,0.,12.0,0.,12.0,0.,12.0,0.,12.0
1979-07-15 18:03:48.910 ,0,1,0.,12.0,0.,12.0,0.,12.0,0.,12.0
1979-07-15 18:04:00.910 ,3,1,0.,12.0,0.,12.0,0.,12.0,0.,12.0
1979-07-15 18:04:12.910 ,3,1,0.,12.0,0.,12.0,0.,12.0,0.,12.0
1979-07-15 18:04:24.910 ,7,1,0.,12.0,0.,12.0,0.,12.0,0.,12.0
1979-07-15 18:04:36.910 ,7,1,0.,12.0,0.,12.0,0.,12.0,0.,12.0
1979-07-15 18:04:48.910 ,4,1,0.,12.0,0.,12.0,0.,12.0,0.,12.0
1979-07-15 18:05:00.910 ,4,1,0.,12.0,0.,12.0,0.,12.0,0.,12.0
1979-07-15 18:05:12.910 ,0,1,0.,12.0,0.,12.0,0.,12.0,0.,12.0
1979-07-15 18:05:24.910 ,0,1,0.,12.0,0.,12.0,0.,12.0,0.,12.0
1979-07-15 18:06:00.910 ,0,0,0.,12.0,0.,12.0,0.,12.0,0.,12.0
1979-07-15 18:06:12.910 ,0,0,0.,12.0,0.,12.0,0.,12.0,0.,12.0
1979-07-15 18:06:24.910 ,5,1,0.,12.0,0.,12.0,0.,12.0,0.,12.0
1979-07-15 18:06:36.910 ,5,1,0.,12.0,0.,12.0,0.,12.0,0.,12.0
1979-07-15 18:06:48.910 ,5,0,0.,12.0,0.,12.0,0.,12.0,0.,12.0
1979-07-15 18:07:00.910 ,5,0,0.,12.0,0.,12.0,0.,12.0,0.,12.0
1979-07-15 18:07:12.910 ,4,1,0.,12.0,0.,12.0,0.,12.0,0.,12.0
1979-07-15 18:07:24.910 ,4,1,0.,12.0,0.,12.0,0.,12.0,0.,12.0
1979-07-15 18:07:36.910 ,4,0,0.,12.0,0.,12.0,0.,12.0,0.,12.0
1979-07-15 18:07:48.910 ,4,0,0.,12.0,0.,12.0,0.,12.0,0.,12.0
1979-07-15 18:08:00.910 ,3,1,0.,12.0,0.,12.0,0.,12.0,0.,12.0
1979-07-15 18:08:12.910 ,3,1,0.,12.0,0.,12.0,0.,12.0,0.,12.0
1979-07-15 18:08:24.910 ,3,0,0.,12.0,0.,12.0,0.,12.0,0.,12.0
1979-07-15 18:08:36.910 ,3,0,0.,12.0,0.,12.0,0.,12.0,0.,12.0
1979-07-15 18:08:48.910 ,2,1,0.,12.0,0.,12.0,0.,12.0,0.,12.0
1979-07-15 18:09:00.910 ,2,1,0.,12.0,0.,12.0,0.,12.0,0.,12.0
1979-07-15 18:09:12.910 ,2,0,0.,12.0,0.,12.0,0.,12.0,0.,12.0
1979-07-15 18:09:24.910 ,2,0,0.,12.0,0.,12.0,0.,12.0,0.,12.0
1979-07-15 18:09:36.910 ,1,1,0.,12.0,0.,12.0,0.,12.0,0.,12.0
1979-07-15 18:09:48.910 ,1,1,0.,12.0,0.,12.0,0.,12.0,0.,12.0
1979-07-15 18:10:00.910 ,0,0,0.,12.0,0.,12.0,0.,12.0,0.,12.0
1979-07-15 18:10:12.910 ,0,0,0.,12.0,0.,12.0,0.,12.0,0.,12.0
1979-07-15 18:10:56.710 ,0,0,,0,,0,,0,,0
1979-07-15 18:11:08.710 ,0,0,0.,12.0,0.,12.0,0.,12.0,0.,12.0
1979-07-15 18:11:12.910 ,0,1,0.,12.0,0.,12.0,0.,12.0,0.,12.0
1979-07-15 18:11:24.910 ,0,1,0.,12.0,0.,12.0,0.,12.0,0.,12.0
1979-07-15 18:11:36.910 ,0,0,0.,12.0,0.,12.0,0.,12.0,0.,12.0
1979-07-15 18:11:48.910 ,0,0,0.,12.0,0.,12.0,0.,12.0,0.,12.0
1979-07-15 18:12:00.910 ,1,1,0.,12.0,0.,12.0,0.,12.0,0.,12.0
1979-07-15 18:12:12.910 ,1,1,0.,12.0,0.,12.0,0.,12.0,0.,12.0
1979-07-15 18:12:24.910 ,1,0,0.,12.0,0.,12.0,0.,12.0,0.,12.0
1979-07-15 18:12:36.910 ,1,0,0.,12.0,0.,12.0,0.,12.0,0.,12.0
1979-07-15 18:12:48.910 ,2,1,0.,12.0,0.,12.0,0.,12.0,0.,12.0
1979-07-15 18:13:00.910 ,2,1,0.,12.0,0.,12.0,0.,12.0,0.,12.0
1979-07-15 18:13:12.910 ,2,0,0.,12.0,0.,12.0,0.,12.0,0.,12.0
1979-07-15 18:13:24.910 ,2,0,0.,12.0,0.,12.0,0.,12.0,0.,12.0
1979-07-15 18:13:36.910 ,3,1,0.,12.0,0.,12.0,0.,12.0,0.,12.0
1979-07-15 18:13:48.910 ,3,1,0.,12.0,0.,12.0,0.,12.0,0.,12.0
1979-07-15 18:14:00.910 ,3,0,0.,12.0,0.,12.0,0.,12.0,0.,12.0
1979-07-15 18:14:12.910 ,3,0,0.,12.0,0.,12.0,0.,12.0,0.,12.0
1979-07-15 18:14:24.910 ,4,1,0.,12.0,0.,12.0,0.,12.0,0.,12.0
1979-07-15 18:14:36.910 ,4,1,0.,12.0,0.,12.0,0.,12.0,0.,12.0
1979-07-15 18:14:48.910 ,4,0,0.,12.0,0.,12.0,0.,12.0,0.,12.0
1979-07-15 18:15:00.910 ,4,0,0.,12.0,0.,12.0,0.,12.0,0.,12.0
1979-07-15 18:15:12.910 ,5,1,0.,12.0,0.,12.0,0.,12.0,0.,12.0
1979-07-15 18:15:24.910 ,5,1,0.,12.0,0.,12.0,0.,12.0,0.,12.0
1979-07-15 18:15:36.910 ,5,0,0.,12.0,0.,12.0,0.,12.0,0.,12.0
1979-07-15 18:15:48.910 ,5,0,0.,12.0,0.,12.0,0.,12.0,0.,12.0
1979-07-15 18:16:00.910 ,6,1,0.,12.0,0.,12.0,0.,12.0,0.,12.0
1979-07-15 18:16:12.910 ,6,1,0.,12.0,0.,12.0,0.,12.0,0.,12.0
1979-07-15 18:16:48.910 ,7,1,0.,12.0,0.,12.0,0.,12.0,0.,12.0
1979-07-15 18:17:00.910 ,7,1,0.,12.0,0.,12.0,0.,12.0,0.,12.0
1979-07-15 18:17:12.910 ,7,0,0.,12.0,0.,12.0,0.,12.0,0.,12.0
1979-07-15 18:17:24.910 ,7,0,0.,12.0,0.,12.0,0.,12.0,0.,12.0
1979-07-15 18:17:36.910 ,7,1,0.,12.0,0.,12.0,0.,12.0,0.,12.0
1979-07-15 18:17:48.910 ,7,1,0.,12.0,0.,12.0,0.,12.0,0.,12.0
1979-07-15 18:18:00.910 ,7,0,0.,12.0,0.,12.0,0.,12.0,0.,12.0
1979-07-15 18:18:12.910 ,7,0,0.,12.0,0.,12.0,0.,12.0,0.,12.0
1979-07-15 18:18:24.910 ,6,1,0.,12.0,0.,12.0,0.,12.0,0.,12.0
1979-07-15 18:18:36.910 ,6,1,0.,12.0,0.,12.0,0.,12.0,0.,12.0
1979-07-15 18:18:48.910 ,6,0,0.,12.0,0.,12.0,0.,12.0,0.,12.0
1979-07-15 18:19:00.910 ,6,0,0.,12.0,0.,12.0,0.,12.0,0.,12.0
1979-07-15 18:19:12.910 ,5,1,0.,12.0,0.,12.0,0.,12.0,0.,12.0
1979-07-15 18:19:24.910 ,5,1,0.,12.0,0.,12.0,0.,12.0,0.,12.0
1979-07-15 18:19:36.910 ,5,0,1.,12.0,0.,12.0,0.,12.0,0.,12.0
1979-07-15 18:19:48.910 ,5,0,0.,12.0,0.,12.0,0.,12.0,0.,12.0
1979-07-15 18:20:00.910 ,4,1,0.,12.0,0.,12.0,0.,12.0,0.,12.0
1979-07-15 18:20:12.910 ,4,1,0.,12.0,0.,12.0,0.,12.0,0.,12.0
1979-07-15 18:20:24.910 ,4,0,0.,12.0,0.,12.0,0.,12.0,0.,12.0
1979-07-15 18:20:36.910 ,4,0,0.,12.0,0.,12.0,0.,12.0,0.,12.0
1979-07-15 18:20:48.910 ,3,1,0.,12.0,0.,12.0,0.,12.0,0.,12.0
1979-07-15 18:21:00.910 ,3,1,0.,12.0,0.,12.0,0.,12.0,0.,12.0
1979-07-15 18:21:12.910 ,3,0,0.,12.0,0.,12.0,0.,12.0,0.,12.0
1979-07-15 18:21:24.910 ,3,0,0.,12.0,0.,12.0,0.,12.0,0.,12.0
1979-07-15 18:21:36.910 ,2,1,0.,12.0,0.,12.0,0.,12.0,0.,12.0
1979-07-15 18:21:48.910 ,2,1,0.,12.0,0.,12.0,0.,12.0,0.,12.0
1979-07-15 18:22:00.910 ,2,0,0.,12.0,0.,12.0,0.,12.0,0.,12.0
1979-07-15 18:22:12.910 ,2,0,0.,12.0,0.,12.0,0.,12.0,0.,12.0
1979-07-15 18:22:24.910 ,1,1,0.,12.0,0.,12.0,0.,12.0,0.,12.0
1979-07-15 18:22:36.910 ,1,1,0.,12.0,0.,12.0,0.,12.0,0.,12.0
1979-07-15 18:22:48.910 ,1,0,0.,12.0,0.,12.0,0.,12.0,0.,12.0
1979-07-15 18:23:00.910 ,1,0,0.,12.0,0.,12.0,0.,12.0,0.,12.0
1979-07-15 18:24:00.910 ,0,1,0.,12.0,0.,12.0,0.,12.0,0.,12.0
1979-07-15 18:24:12.910 ,0,1,0.,12.0,0.,12.0,0.,12.0,0.,12.0
1979-07-15 18:24:24.910 ,0,0,0.,12.0,0.,12.0,0.,12.0,0.,12.0
1979-07-15 18:24:36.910 ,0,0,0.,12.0,0.,12.0,0.,12.0,0.,12.0
1979-07-15 18:24:48.910 ,1,1,0.,12.0,0.,12.0,0.,12.0,0.,12.0
1979-07-15 18:25:00.910 ,1,1,0.,12.0,0.,12.0,0.,12.0,0.,12.0
1979-07-15 18:25:12.910 ,1,0,0.,12.0,0.,12.0,0.,12.0,0.,12.0
1979-07-15 18:25:24.910 ,1,0,0.,12.0,0.,12.0,0.,12.0,0.,12.0
1979-07-15 18:25:36.910 ,2,1,0.,12.0,0.,12.0,0.,12.0,0.,12.0
1979-07-15 18:25:48.910 ,2,1,0.,12.0,0.,12.0,0.,12.0,0.,12.0
1979-07-15 18:26:00.910 ,2,0,0.,12.0,0.,12.0,0.,12.0,0.,12.0
1979-07-15 18:26:12.910 ,2,0,0.,12.0,0.,12.0,0.,12.0,0.,12.0
1979-07-15 18:26:24.910 ,3,1,0.,12.0,0.,12.0,0.,12.0,0.,12.0
1979-07-15 18:26:36.910 ,3,1,0.,12.0,0.,12.0,0.,12.0,0.,12.0
1979-07-15 18:26:48.910 ,3,0,0.,12.0,0.,12.0,0.,12.0,0.,12.0
1979-07-15 18:27:00.910 ,3,0,1.,12.0,0.,12.0,0.,12.0,0.,12.0
1979-07-15 18:27:12.910 ,4,1,0.,12.0,0.,12.0,0.,12.0,0.,12.0
1979-07-15 18:27:24.910 ,4,1,0.,12.0,0.,12.0,0.,12.0,0.,12.0
1979-07-15 18:27:36.910 ,4,0,0.,12.0,0.,12.0,0.,12.0,0.,12.0
1979-07-15 18:27:48.910 ,4,0,0.,12.0,0.,12.0,0.,12.0,0.,12.0
1979-07-15 18:28:00.910 ,5,1,0.,12.0,0.,12.0,0.,12.0,0.,12.0
1979-07-15 18:28:12.910 ,5,1,0.,12.0,0.,12.0,0.,12.0,0.,12.0
1979-07-15 18:28:24.910 ,5,0,0.,12.0,0.,12.0,0.,12.0,0.,12.0
1979-07-15 18:28:36.910 ,5,0,0.,12.0,0.,12.0,0.,12.0,0.,12.0
1979-07-15 18:28:48.910 ,6,1,0.,12.0,0.,12.0,0.,12.0,0.,12.0
1979-07-15 18:29:00.910 ,6,1,0.,12.0,0.,12.0,0.,12.0,0.,12.0
1979-07-15 18:29:12.910 ,6,0,0.,12.0,0.,12.0,0.,12.0,0.,12.0
1979-07-15 18:29:24.910 ,6,0,0.,12.0,0.,12.0,0.,12.0,0.,12.0
1979-07-15 18:29:36.910 ,7,1,0.,12.0,0.,12.0,0.,12.0,0.,12.0
1979-07-15 18:29:48.910 ,7,1,0.,12.0,0.,12.0,0.,12.0,0.,12.0
1979-07-15 18:30:00.910 ,7,0,0.,12.0,0.,12.0,0.,12.0,0.,12.0
1979-07-15 18:30:12.910 ,7,0,0.,12.0,0.,12.0,0.,12.0,0.,12.0
1979-07-15 18:30:24.910 ,7,1,0.,12.0,0.,12.0,0.,12.0,0.,12.0
1979-07-15 18:30:36.910 ,7,1,0.,12.0,0.,12.0,0.,12.0,0.,12.0
1979-07-15 18:30:48.910 ,7,0,0.,12.0,0.,12.0,0.,12.0,0.,12.0
1979-07-15 18:31:00.910 ,7,0,0.,12.0,0.,12.0,0.,12.0,0.,12.0
1979-07-15 18:31:12.910 ,6,1,0.,12.0,0.,12.0,0.,12.0,0.,12.0
1979-07-15 18:31:24.910 ,6,1,0.,12.0,0.,12.0,0.,12.0,0.,12.0
1979-07-15 18:31:36.910 ,6,0,0.,12.0,0.,12.0,0.,12.0,0.,12.0
1979-07-15 18:31:48.910 ,6,0,0.,12.0,0.,12.0,0.,12.0,0.,12.0
1979-07-15 18:32:00.910 ,5,1,0.,12.0,0.,12.0,0.,12.0,0.,12.0
1979-07-15 18:32:12.910 ,5,1,0.,12.0,0.,12.0,0.,12.0,0.,12.0
1979-07-15 18:32:24.910 ,5,0,0.,12.0,0.,12.0,0.,12.0,0.,12.0
1979-07-15 18:32:36.910 ,5,0,0.,12.0,0.,12.0,0.,12.0,0.,12.0
1979-07-15 18:32:48.910 ,4,1,0.,12.0,0.,12.0,0.,12.0,0.,12.0
1979-07-15 18:33:00.910 ,4,1,0.,12.0,0.,12.0,0.,12.0,0.,12.0
1979-07-15 18:33:12.910 ,4,0,0.,12.0,0.,12.0,0.,12.0,0.,12.0
1979-07-15 18:33:24.910 ,4,0,0.,12.0,0.,12.0,0.,12.0,0.,12.0
1979-07-15 18:33:36.910 ,3,1,0.,12.0,0.,12.0,0.,12.0,0.,12.0
1979-07-15 18:33:48.910 ,3,1,0.,12.0,0.,12.0,0.,12.0,0.,12.0
1979-07-15 18:34:00.910 ,3,0,0.,12.0,0.,12.0,0.,12.0,0.,12.0
1979-07-15 18:34:12.910 ,3,0,0.,12.0,0.,12.0,0.,12.0,0.,12.0
1979-07-15 18:34:24.910 ,2,1,0.,12.0,0.,12.0,0.,12.0,0.,12.0
1979-07-15 18:34:36.910 ,2,1,0.,12.0,0.,12.0,0.,12.0,0.,12.0
1979-07-15 18:34:48.910 ,2,0,0.,12.0,0.,12.0,0.,12.0,0.,12.0
1979-07-15 18:35:00.910 ,2,0,0.,12.0,0.,12.0,0.,12.0,0.,12.0
1979-07-15 18:35:12.910 ,1,1,0.,12.0,0.,12.0,0.,12.0,0.,12.0
1979-07-15 18:35:24.910 ,1,1,0.,12.0,0.,12.0,0.,12.0,0.,12.0
1979-07-15 18:35:36.910 ,1,0,0.,12.0,0.,12.0,0.,12.0,0.,12.0
1979-07-15 18:35:48.910 ,1,0,0.,12.0,0.,12.0,0.,12.0,0.,12.0
1979-07-15 18:36:00.910 ,0,1,0.,12.0,0.,12.0,0.,12.0,0.,12.0
1979-07-15 18:36:12.910 ,0,1,0.,12.0,0.,12.0,0.,12.0,0.,12.0
1979-07-15 18:36:24.910 ,0,0,0.,12.0,0.,12.0,0.,12.0,0.,12.0
1979-07-15 18:36:36.910 ,0,0,0.,12.0,0.,12.0,0.,12.0,0.,12.0
1979-07-15 18:36:48.910 ,0,1,0.,12.0,0.,12.0,0.,12.0,0.,12.0
1979-07-15 18:37:00.910 ,0,1,0.,12.0,0.,12.0,0.,12.0,0.,12.0
1979-07-15 18:37:12.910 ,0,0,0.,12.0,0.,12.0,0.,12.0,0.,12.0
1979-07-15 18:37:24.910 ,0,0,0.,12.0,0.,12.0,0.,12.0,0.,12.0
1979-07-15 18:37:36.910 ,1,1,0.,12.0,0.,12.0,0.,12.0,0.,12.0
1979-07-15 18:37:48.910 ,1,1,0.,12.0,0.,12.0,0.,12.0,0.,12.0
1979-07-15 18:38:00.910 ,1,0,0.,12.0,0.,12.0,0.,12.0,0.,12.0
1979-07-15 18:38:12.910 ,1,0,0.,12.0,0.,12.0,0.,12.0,0.,12.0
1979-07-15 18:38:24.910 ,2,1,0.,12.0,0.,12.0,0.,12.0,0.,12.0
1979-07-15 18:38:36.910 ,2,1,0.,12.0,0.,12.0,0.,12.0,0.,12.0
1979-07-15 18:38:48.910 ,2,0,0.,12.0,0.,12.0,0.,12.0,0.,12.0
1979-07-15 18:39:00.910 ,2,0,0.,12.0,0.,12.0,0.,12.0,0.,12.0
1979-07-15 18:39:12.910 ,3,1,0.,12.0,0.,12.0,0.,12.0,0.,12.0
1979-07-15 18:39:24.910 ,3,1,0.,12.0,0.,12.0,0.,12.0,0.,12.0
1979-07-15 18:39:36.910 ,3,0,0.,12.0,0.,12.0,0.,12.0,0.,12.0
1979-07-15 18:39:48.910 ,3,0,0.,12.0,0.,12.0,0.,12.0,0.,12.0
1979-07-15 18:40:00.910 ,4,1,0.,12.0,0.,12.0,0.,12.0,0.,12.0
1979-07-15 18:40:12.910 ,4,1,0.,12.0,0.,12.0,0.,12.0,0.,12.0
1979-07-15 18:40:24.910 ,4,0,0.,12.0,0.,12.0,0.,12.0,0.,12.0
1979-07-15 18:40:36.910 ,4,0,0.,12.0,0.,12.0,0.,12.0,0.,12.0
1979-07-15 18:40:48.910 ,5,1,0.,12.0,0.,12.0,0.,12.0,0.,12.0
1979-07-15 18:41:00.910 ,5,1,0.,12.0,0.,12.0,0.,12.0,0.,12.0
1979-07-15 18:41:12.910 ,5,0,0.,12.0,0.,12.0,0.,12.0,0.,12.0
1979-07-15 18:41:24.910 ,5,0,0.,12.0,0.,12.0,0.,12.0,0.,12.0
1979-07-15 18:41:36.910 ,6,1,0.,12.0,0.,12.0,0.,12.0,0.,12.0
1979-07-15 18:41:48.910 ,6,1,0.,12.0,0.,12.0,0.,12.0,0.,12.0
1979-07-15 18:42:00.910 ,6,0,0.,12.0,0.,12.0,0.,12.0,0.,12.0
1979-07-15 18:42:12.910 ,6,0,0.,12.0,0.,12.0,0.,12.0,0.,12.0
1979-07-15 18:42:24.910 ,7,0,0.,12.0,0.,12.0,0.,12.0,0.,12.0
1979-07-15 18:42:36.910 ,7,0,0.,12.0,0.,12.0,0.,12.0,0.,12.0
1979-07-15 18:42:48.910 ,7,0,0.,12.0,0.,12.0,0.,12.0,0.,12.0
1979-07-15 18:43:00.910 ,7,0,0.,12.0,0.,12.0,0.,12.0,0.,12.0
1979-07-15 18:43:12.910 ,4,1,0.,12.0,0.,12.0,0.,12.0,0.,12.0
1979-07-15 18:43:24.910 ,4,1,0.,12.0,0.,12.0,0.,12.0,0.,12.0
1979-07-15 18:43:36.910 ,0,1,0.,12.0,0.,12.0,0.,12.0,0.,12.0
1979-07-15 18:43:48.910 ,0,1,0.,12.0,0.,12.0,0.,12.0,0.,12.0
1979-07-15 18:44:00.910 ,3,1,0.,12.0,0.,12.0,0.,12.0,0.,12.0
1979-07-15 18:44:12.910 ,3,1,0.,12.0,0.,12.0,0.,12.0,0.,12.0
1979-07-15 18:44:24.910 ,7,1,0.,12.0,0.,12.0,0.,12.0,0.,12.0
1979-07-15 18:44:36.910 ,7,1,0.,12.0,0.,12.0,0.,12.0,0.,12.0
1979-07-15 18:44:48.910 ,4,1,0.,12.0,0.,12.0,0.,12.0,0.,12.0
1979-07-15 18:45:00.910 ,4,1,0.,12.0,0.,12.0,0.,12.0,0.,12.0
1979-07-15 18:45:12.910 ,0,1,0.,12.0,0.,12.0,0.,12.0,0.,12.0
1979-07-15 18:45:24.910 ,0,1,0.,12.0,0.,12.0,0.,12.0,0.,12.0
1979-07-15 18:45:36.910 ,3,1,0.,12.0,0.,12.0,0.,12.0,0.,12.0
1979-07-15 18:45:48.910 ,3,1,0.,12.0,0.,12.0,0.,12.0,0.,12.0
1979-07-15 18:46:24.910 ,4,1,0.,12.0,0.,12.0,0.,12.0,0.,12.0
1979-07-15 18:46:36.910 ,4,1,0.,12.0,0.,12.0,0.,12.0,0.,12.0
1979-07-15 18:46:48.910 ,0,1,0.,12.0,0.,12.0,0.,12.0,0.,12.0
1979-07-15 18:47:00.910 ,0,1,0.,12.0,0.,12.0,0.,12.0,0.,12.0
1979-07-15 18:47:12.910 ,3,1,0.,12.0,0.,12.0,0.,12.0,0.,12.0
1979-07-15 18:47:24.910 ,3,1,0.,12.0,0.,12.0,0.,12.0,0.,12.0
1979-07-15 18:47:36.910 ,7,1,0.,12.0,0.,12.0,0.,12.0,0.,12.0
1979-07-15 18:47:48.910 ,7,1,0.,12.0,0.,12.0,0.,12.0,0.,12.0
1979-07-15 18:48:00.910 ,4,1,0.,12.0,0.,12.0,0.,12.0,0.,12.0
1979-07-15 18:48:12.910 ,4,1,0.,12.0,0.,12.0,0.,12.0,0.,12.0
1979-07-15 18:48:24.910 ,0,1,0.,12.0,0.,12.0,0.,12.0,0.,12.0
1979-07-15 18:48:36.910 ,0,1,0.,12.0,0.,12.0,0.,12.0,0.,12.0
1979-07-15 18:48:48.910 ,3,1,0.,12.0,0.,12.0,0.,12.0,0.,12.0
1979-07-15 18:49:00.910 ,3,1,0.,12.0,0.,12.0,0.,12.0,0.,12.0
1979-07-15 18:49:12.910 ,7,1,0.,12.0,0.,12.0,0.,12.0,0.,12.0
1979-07-15 18:49:24.910 ,7,1,0.,12.0,0.,12.0,0.,12.0,0.,12.0
1979-07-15 18:49:36.910 ,4,1,0.,12.0,0.,12.0,0.,12.0,0.,12.0
1979-07-15 18:49:48.910 ,4,1,0.,12.0,0.,12.0,0.,12.0,0.,12.0
1979-07-15 18:50:00.910 ,0,1,0.,12.0,0.,12.0,0.,12.0,0.,12.0
1979-07-15 18:50:12.910 ,0,1,0.,12.0,0.,12.0,0.,12.0,0.,12.0
1979-07-15 18:50:24.910 ,3,1,0.,12.0,0.,12.0,0.,12.0,0.,12.0
1979-07-15 18:50:36.910 ,3,1,0.,12.0,0.,12.0,0.,12.0,0.,12.0
1979-07-15 18:50:48.910 ,7,1,0.,12.0,0.,12.0,0.,12.0,0.,12.0
1979-07-15 18:51:00.910 ,7,1,0.,12.0,0.,12.0,0.,12.0,0.,12.0
1979-07-15 18:51:12.910 ,4,1,0.,12.0,0.,12.0,0.,12.0,0.,12.0
1979-07-15 18:51:24.910 ,4,1,0.,12.0,0.,12.0,0.,12.0,0.,12.0
1979-07-15 18:52:00.910 ,3,1,0.,12.0,0.,12.0,0.,12.0,0.,12.0
1979-07-15 18:52:12.910 ,3,1,0.,12.0,0.,12.0,0.,12.0,0.,12.0
1979-07-15 18:52:24.910 ,7,1,0.,12.0,0.,12.0,0.,12.0,0.,12.0
1979-07-15 18:52:36.910 ,7,1,0.,12.0,0.,12.0,0.,12.0,0.,12.0
1979-07-15 18:52:48.910 ,4,1,0.,12.0,0.,12.0,0.,12.0,0.,12.0
1979-07-15 18:53:00.910 ,4,1,0.,12.0,0.,12.0,0.,12.0,0.,12.0
1979-07-15 18:53:12.910 ,0,1,0.,12.0,0.,12.0,0.,12.0,0.,12.0
1979-07-15 18:53:24.910 ,0,1,0.,12.0,0.,12.0,0.,12.0,0.,12.0
1979-07-15 18:53:36.910 ,0,0,0.,12.0,0.,12.0,0.,12.0,0.,12.0
1979-07-15 18:53:48.910 ,0,0,0.,12.0,0.,12.0,0.,12.0,0.,12.0
1979-07-15 18:54:00.910 ,0,0,0.,12.0,0.,12.0,0.,12.0,0.,12.0
1979-07-15 18:54:12.910 ,0,0,0.,12.0,0.,12.0,0.,12.0,0.,12.0
1979-07-15 18:54:24.910 ,5,1,0.,12.0,0.,12.0,0.,12.0,0.,12.0
1979-07-15 18:54:36.910 ,5,1,0.,12.0,0.,12.0,0.,12.0,0.,12.0
1979-07-15 18:54:48.910 ,5,0,0.,12.0,0.,12.0,0.,12.0,0.,12.0
1979-07-15 18:55:00.910 ,5,0,0.,12.0,0.,12.0,0.,12.0,0.,12.0
1979-07-15 18:55:12.910 ,4,1,0.,12.0,0.,12.0,0.,12.0,0.,12.0
1979-07-15 18:55:24.910 ,4,1,0.,12.0,0.,12.0,0.,12.0,0.,12.0
1979-07-15 18:55:36.910 ,4,0,0.,12.0,0.,12.0,0.,12.0,0.,12.0
1979-07-15 18:55:48.910 ,4,0,0.,12.0,0.,12.0,0.,12.0,0.,12.0
1979-07-15 18:56:00.910 ,3,1,0.,12.0,0.,12.0,0.,12.0,0.,12.0
1979-07-15 18:56:12.910 ,3,1,0.,12.0,0.,12.0,0.,12.0,0.,12.0
1979-07-15 18:56:24.910 ,3,0,0.,12.0,0.,12.0,0.,12.0,0.,12.0
1979-07-15 18:56:36.910 ,3,0,0.,12.0,0.,12.0,0.,12.0,0.,12.0
1979-07-15 18:56:48.910 ,2,1,0.,12.0,0.,12.0,0.,12.0,0.,12.0
1979-07-15 18:57:00.910 ,2,1,0.,12.0,0.,12.0,0.,12.0,0.,12.0
1979-07-15 18:57:12.910 ,2,0,0.,12.0,0.,12.0,0.,12.0,0.,12.0
1979-07-15 18:57:24.910 ,2,0,0.,12.0,0.,12.0,0.,12.0,0.,12.0
1979-07-15 18:57:36.910 ,1,1,0.,12.0,0.,12.0,0.,12.0,0.,12.0
1979-07-15 18:57:48.910 ,1,1,0.,12.0,0.,12.0,0.,12.0,0.,12.0
1979-07-15 18:58:00.910 ,1,0,0.,12.0,0.,12.0,0.,12.0,0.,12.0
1979-07-15 18:58:12.910 ,1,0,0.,12.0,0.,12.0,0.,12.0,0.,12.0
1979-07-15 18:58:24.910 ,0,1,0.,12.0,0.,12.0,0.,12.0,0.,12.0
1979-07-15 18:58:36.910 ,0,1,0.,12.0,0.,12.0,0.,12.0,0.,12.0
1979-07-15 18:58:48.910 ,0,0,0.,12.0,0.,12.0,0.,12.0,0.,12.0
1979-07-15 18:59:00.910 ,0,0,0.,12.0,0.,12.0,0.,12.0,0.,12.0
1979-07-15 18:59:12.910 ,0,1,0.,12.0,0.,12.0,0.,12.0,0.,12.0
1979-07-15 18:59:24.910 ,0,1,0.,12.0,0.,12.0,0.,12.0,0.,12.0
1979-07-15 18:59:36.910 ,0,0,0.,12.0,0.,12.0,0.,12.0,0.,12.0
1979-07-15 18:59:48.910 ,0,0,0.,12.0,0.,12.0,0.,12.0,0.,12.0
1979-07-15 19:00:00.910 ,1,1,0.,12.0,0.,12.0,0.,12.0,0.,12.0
1979-07-15 19:00:12.910 ,1,1,0.,12.0,0.,12.0,0.,12.0,1.,12.0
1979-07-15 19:00:24.910 ,1,0,0.,12.0,0.,12.0,0.,12.0,0.,12.0
1979-07-15 19:00:36.910 ,1,0,0.,12.0,0.,12.0,0.,12.0,0.,12.0
1979-07-15 19:01:12.910 ,2,0,0.,12.0,0.,12.0,0.,12.0,0.,12.0
1979-07-15 19:01:24.910 ,2,0,0.,12.0,0.,12.0,0.,12.0,0.,12.0
1979-07-15 19:01:36.910 ,3,1,0.,12.0,0.,12.0,0.,12.0,0.,12.0
1979-07-15 19:01:48.910 ,3,1,0.,12.0,0.,12.0,0.,12.0,0.,12.0
1979-07-15 19:02:00.910 ,3,0,0.,12.0,0.,12.0,0.,12.0,0.,12.0
1979-07-15 19:02:12.910 ,3,0,0.,12.0,0.,12.0,0.,12.0,0.,12.0
1979-07-15 19:02:24.910 ,4,1,0.,12.0,0.,12.0,0.,12.0,0.,12.0
1979-07-15 19:02:36.910 ,4,1,0.,12.0,0.,12.0,0.,12.0,0.,12.0
1979-07-15 19:02:48.910 ,4,0,0.,12.0,0.,12.0,0.,12.0,0.,12.0
1979-07-15 19:03:00.910 ,4,0,0.,12.0,0.,12.0,0.,12.0,0.,12.0
1979-07-15 19:03:12.910 ,5,1,0.,12.0,0.,12.0,0.,12.0,0.,12.0
1979-07-15 19:03:24.910 ,5,1,0.,12.0,0.,12.0,0.,12.0,0.,12.0
1979-07-15 19:03:36.910 ,5,0,0.,12.0,0.,12.0,0.,12.0,0.,12.0
1979-07-15 19:03:48.910 ,5,0,0.,12.0,0.,12.0,0.,12.0,0.,12.0
1979-07-15 19:04:00.910 ,6,1,0.,12.0,0.,12.0,0.,12.0,0.,12.0
1979-07-15 19:04:12.910 ,6,1,0.,12.0,0.,12.0,0.,12.0,0.,12.0
1979-07-15 19:04:24.910 ,6,0,0.,12.0,0.,12.0,0.,12.0,0.,12.0
1979-07-15 19:04:36.910 ,6,0,0.,12.0,0.,12.0,0.,12.0,0.,12.0
1979-07-15 19:04:48.910 ,7,1,0.,12.0,0.,12.0,0.,12.0,0.,12.0
1979-07-15 19:05:00.910 ,7,1,0.,12.0,0.,12.0,0.,12.0,0.,12.0
1979-07-15 19:05:12.910 ,7,0,0.,12.0,0.,12.0,0.,12.0,0.,12.0
1979-07-15 19:05:24.910 ,7,0,0.,12.0,0.,12.0,0.,12.0,0.,12.0
1979-07-15 19:05:36.910 ,7,1,0.,12.0,0.,12.0,0.,12.0,0.,12.0
1979-07-15 19:05:48.910 ,7,1,0.,12.0,0.,12.0,0.,12.0,0.,12.0
1979-07-15 19:06:00.910 ,7,0,0.,12.0,0.,12.0,0.,12.0,0.,12.0
1979-07-15 19:06:12.910 ,7,0,0.,12.0,0.,12.0,0.,12.0,0.,12.0
1979-07-15 19:06:24.910 ,6,1,0.,12.0,0.,12.0,0.,12.0,0.,12.0
1979-07-15 19:06:36.910 ,6,1,0.,12.0,0.,12.0,0.,12.0,0.,12.0
1979-07-15 19:06:48.910 ,6,0,0.,12.0,0.,12.0,0.,12.0,0.,12.0
1979-07-15 19:07:00.910 ,6,0,0.,12.0,0.,12.0,0.,12.0,0.,12.0
1979-07-15 19:07:12.910 ,5,1,0.,12.0,0.,12.0,0.,12.0,0.,12.0
1979-07-15 19:07:24.910 ,5,1,0.,12.0,0.,12.0,0.,12.0,0.,12.0
1979-07-15 19:07:36.910 ,5,0,0.,12.0,0.,12.0,0.,12.0,0.,12.0
1979-07-15 19:07:48.910 ,5,0,1.,12.0,0.,12.0,0.,12.0,0.,12.0
1979-07-15 19:08:00.910 ,4,1,0.,12.0,0.,12.0,0.,12.0,0.,12.0
1979-07-15 19:08:12.910 ,4,1,0.,12.0,0.,12.0,0.,12.0,0.,12.0
1979-07-15 19:08:24.910 ,4,0,0.,12.0,0.,12.0,0.,12.0,0.,12.0
1979-07-15 19:08:36.910 ,4,0,0.,12.0,0.,12.0,0.,12.0,0.,12.0
1979-07-15 19:08:48.910 ,3,1,1.,12.0,0.,12.0,0.,12.0,0.,12.0
1979-07-15 19:09:00.910 ,3,1,0.,12.0,0.,12.0,0.,12.0,0.,12.0
1979-07-15 19:09:36.910 ,2,1,1.,12.0,0.,12.0,0.,12.0,0.,12.0
1979-07-15 19:09:48.910 ,2,1,0.,12.0,0.,12.0,0.,12.0,0.,12.0
1979-07-15 19:10:00.910 ,2,0,0.,12.0,0.,12.0,0.,12.0,0.,12.0
1979-07-15 19:10:12.910 ,2,0,0.,12.0,0.,12.0,0.,12.0,0.,12.0
1979-07-15 19:10:24.910 ,1,1,0.,12.0,0.,12.0,0.,12.0,0.,12.0
1979-07-15 19:10:36.910 ,1,1,0.,12.0,0.,12.0,0.,12.0,0.,12.0
1979-07-15 19:10:48.910 ,1,0,0.,12.0,0.,12.0,0.,12.0,0.,12.0
1979-07-15 19:11:00.910 ,1,0,0.,12.0,0.,12.0,0.,12.0,0.,12.0
1979-07-15 19:11:12.910 ,0,1,0.,12.0,0.,12.0,0.,12.0,0.,12.0
1979-07-15 19:11:24.910 ,0,1,0.,12.0,0.,12.0,0.,12.0,0.,12.0
1979-07-15 19:11:36.910 ,0,0,0.,12.0,0.,12.0,0.,12.0,0.,12.0
1979-07-15 19:11:48.910 ,0,0,0.,12.0,0.,12.0,0.,12.0,0.,12.0
1979-07-15 19:12:00.910 ,0,1,0.,12.0,0.,12.0,0.,12.0,0.,12.0
1979-07-15 19:12:12.910 ,0,1,0.,12.0,0.,12.0,0.,12.0,0.,12.0
1979-07-15 19:12:24.910 ,0,0,0.,12.0,0.,12.0,0.,12.0,0.,12.0
1979-07-15 19:12:36.910 ,0,0,0.,12.0,0.,12.0,0.,12.0,0.,12.0
1979-07-15 19:12:48.910 ,1,1,0.,12.0,0.,12.0,0.,12.0,0.,12.0
1979-07-15 19:13:00.910 ,1,1,0.,12.0,0.,12.0,0.,12.0,0.,12.0
1979-07-15 19:13:12.910 ,1,0,0.,12.0,0.,12.0,0.,12.0,0.,12.0
1979-07-15 19:13:24.910 ,1,0,0.,12.0,0.,12.0,0.,12.0,0.,12.0
1979-07-15 19:13:36.910 ,2,1,0.,12.0,0.,12.0,0.,12.0,0.,12.0
1979-07-15 19:13:48.910 ,2,1,0.,12.0,0.,12.0,0.,12.0,0.,12.0
1979-07-15 19:14:00.910 ,2,0,0.,12.0,0.,12.0,0.,12.0,0.,12.0
1979-07-15 19:14:12.910 ,2,0,0.,12.0,0.,12.0,0.,12.0,0.,12.0
1979-07-15 19:14:24.910 ,3,1,0.,12.0,0.,12.0,0.,12.0,0.,12.0
1979-07-15 19:14:36.910 ,3,1,0.,12.0,0.,12.0,0.,12.0,0.,12.0
1979-07-15 19:14:48.910 ,3,0,0.,12.0,0.,12.0,0.,12.0,0.,12.0
1979-07-15 19:15:00.910 ,3,0,0.,12.0,0.,12.0,0.,12.0,0.,12.0
1979-07-15 19:15:12.910 ,4,1,0.,12.0,0.,12.0,0.,12.0,0.,12.0
1979-07-15 19:15:24.910 ,4,1,0.,12.0,0.,12.0,0.,12.0,0.,12.0
1979-07-15 19:15:36.910 ,4,0,0.,12.0,0.,12.0,0.,12.0,0.,12.0
1979-07-15 19:15:48.910 ,4,0,0.,12.0,0.,12.0,0.,12.0,0.,12.0
1979-07-15 19:16:00.910 ,5,1,0.,12.0,0.,12.0,0.,12.0,0.,12.0
1979-07-15 19:16:12.910 ,5,1,0.,12.0,0.,12.0,0.,12.0,0.,12.0
1979-07-15 19:16:24.910 ,5,0,0.,12.0,0.,12.0,0.,12.0,0.,12.0
1979-07-15 19:16:36.910 ,5,0,0.,12.0,0.,12.0,0.,12.0,0.,12.0
1979-07-15 19:16:48.910 ,6,1,0.,12.0,0.,12.0,0.,12.0,0.,12.0
1979-07-15 19:17:00.910 ,6,1,0.,12.0,0.,12.0,0.,12.0,0.,12.0
1979-07-15 19:17:12.910 ,6,0,0.,12.0,0.,12.0,0.,12.0,0.,12.0
1979-07-15 19:17:24.910 ,6,0,0.,12.0,0.,12.0,0.,12.0,0.,12.0
1979-07-15 19:17:36.910 ,7,1,0.,12.0,0.,12.0,0.,12.0,0.,12.0
1979-07-15 19:17:48.910 ,7,1,0.,12.0,0.,12.0,0.,12.0,0.,12.0
1979-07-15 19:18:00.910 ,7,0,0.,12.0,0.,12.0,0.,12.0,0.,12.0
1979-07-15 19:18:12.910 ,7,0,0.,12.0,0.,12.0,0.,12.0,0.,12.0
1979-07-15 19:18:24.910 ,7,1,0.,12.0,0.,12.0,0.,12.0,0.,12.0
1979-07-15 19:18:36.910 ,7,1,0.,12.0,0.,12.0,0.,12.0,0.,12.0
1979-07-15 19:18:48.910 ,7,0,0.,12.0,0.,12.0,0.,12.0,0.,12.0
1979-07-15 19:19:00.910 ,7,0,0.,12.0,0.,12.0,0.,12.0,0.,12.0
1979-07-15 19:19:12.910 ,0,0,0.,12.0,0.,12.0,0.,12.0,0.,12.0
1979-07-15 19:19:24.910 ,0,0,,0,,0,,0,,0
1979-07-15 19:19:36.910 ,0,0,,0,,0,,0,,0
1979-07-15 19:19:48.910 ,0,0,,0,,0,,0,,0
1979-07-15 19:19:36.910 ,6,0,0.,12.0,0.,12.0,0.,12.0,1.,12.0
1979-07-15 19:19:48.910 ,6,0,0.,12.0,0.,12.0,0.,12.0,0.,12.0
1979-07-15 19:20:00.910 ,5,1,0.,12.0,0.,12.0,0.,12.0,0.,12.0
1979-07-15 19:20:12.910 ,5,1,0.,12.0,0.,12.0,0.,12.0,0.,12.0
1979-07-15 19:20:24.910 ,5,0,0.,12.0,0.,12.0,0.,12.0,0.,12.0
1979-07-15 19:20:36.910 ,5,0,0.,12.0,1.,12.0,0.,12.0,0.,12.0
1979-07-15 19:20:48.910 ,4,1,0.,12.0,0.,12.0,0.,12.0,0.,12.0